West Chatham, MA

11:16 AM EST on February 25, 2017 (GMT -0500)
Chatham Municipal

Weather History for KCQX - February, 2014

Change the Weather History Date:

Friday, February 7, 2014

  Actual Average Record
Temperature  
Mean Temperature 24 °F -  
Max Temperature 30 °F 37 °F 46 °F (1983)
Min Temperature 19 °F 24 °F 12 °F (1977)
Degree Days  
Heating Degree Days 40    
Moisture  
Dew Point 15 °F    
Average Humidity 63    
Maximum Humidity 84    
Minimum Humidity 47    
Precipitation  
Precipitation 0.00 in - - ()
Sea Level Pressure  
Sea Level Pressure 30.22 in    
Wind  
Wind Speed 6 mph (West)    
Max Wind Speed 12 mph    
Max Gust Speed 20 mph    
Visibility 10 miles    
Events      
Averages and records for this station are not official NWS values.
T = Trace of Precipitation, MM = Missing Value Source: NWS Daily Summary

Daily Weather History Graph

Daily Weather History Graph

Search for Another Location

Airport or City:

Trip Planner

Search our weather history database for the weather conditions in past years. The results will help you decide how hot, cold, wet, or windy it might be!

Date:

Astronomy

Feb. 07, 2014 Rise Set
Actual Time 6:45 AM EST 5:03 PM EST
Civil Twilight 6:16 AM EST 5:32 PM EST
Nautical Twilight 5:43 AM EST 6:05 PM EST
Astronomical Twilight 5:11 AM EST 6:37 PM EST
Moon 11:11 AM EST (2/7) 12:58 AM EST (2/7)
Length of Visible Light 11h 15m
Length of Day
10h 17m
First Quarter, 59% of the Moon is Illuminated
Feb 7
First Quarter
Feb 14
Full
Feb 22
Last Quarter
Mar 1
New
Mar 8
First Quarter

Hourly Weather History & Observations

Time (EST) Temp. Windchill Dew Point Humidity Pressure Visibility Wind Dir Wind Speed Gust Speed Precip Events Conditions
12:01 AM 24.1 °F 19.7 °F 19.9 °F 84% 30.20 in 10.0 mi WNW 3.5 mph - N/A   Scattered Clouds
12:52 AM 24.1 °F 17.0 °F 19.0 °F 81% 30.21 in 10.0 mi West 5.8 mph - N/A   Clear
1:52 AM 24.1 °F 18.2 °F 17.1 °F 75% 30.21 in 10.0 mi West 4.6 mph - N/A   Clear
2:52 AM 24.1 °F 17.0 °F 14.0 °F 65% 30.21 in 10.0 mi West 5.8 mph - N/A   Clear
3:52 AM 21.0 °F 13.4 °F 12.9 °F 71% 30.22 in 10.0 mi WNW 5.8 mph - N/A   Clear
4:52 AM 21.9 °F 17.2 °F 12.9 °F 68% 30.22 in 10.0 mi West 3.5 mph - N/A   Clear
5:52 AM 19.9 °F 14.9 °F 12.0 °F 71% 30.23 in 10.0 mi WNW 3.5 mph - N/A   Clear
6:52 AM 23.0 °F 15.8 °F 10.9 °F 60% 30.24 in 10.0 mi WNW 5.8 mph - N/A   Clear
7:52 AM 25.0 °F 17.1 °F 12.0 °F 58% 30.25 in 10.0 mi WNW 6.9 mph - N/A   Clear
8:52 AM 27.0 °F 18.7 °F 12.0 °F 53% 30.27 in 10.0 mi WNW 8.1 mph - N/A   Clear
9:52 AM 27.0 °F 19.5 °F 12.0 °F 53% 30.28 in 10.0 mi Variable 6.9 mph 18.4 mph N/A   Clear
10:52 AM 28.9 °F 22.8 °F 12.0 °F 49% 30.27 in 10.0 mi Variable 5.8 mph - N/A   Clear
11:52 AM 30.0 °F 24.1 °F 12.0 °F 47% 30.23 in 10.0 mi Variable 5.8 mph - N/A   Clear
12:52 PM 30.9 °F 22.8 °F 15.1 °F 52% 30.19 in 10.0 mi SSW 9.2 mph - N/A   Clear
1:52 PM 30.0 °F 21.7 °F 17.1 °F 59% 30.19 in 10.0 mi SW 9.2 mph 18.4 mph N/A   Clear
2:52 PM 30.0 °F 20.5 °F 16.0 °F 56% 30.19 in 10.0 mi SW 11.5 mph 19.6 mph N/A   Clear
3:52 PM 28.9 °F 21.1 °F 17.1 °F 61% 30.19 in 10.0 mi WSW 8.1 mph - N/A   Clear
4:52 PM 28.0 °F 22.8 °F 17.1 °F 63% 30.19 in 10.0 mi WSW 4.6 mph - N/A   Clear
5:52 PM 28.0 °F 22.8 °F 12.9 °F 53% 30.21 in 10.0 mi SW 4.6 mph - N/A   Clear
6:52 PM 26.1 °F 20.5 °F 15.1 °F 63% 30.21 in 10.0 mi WSW 4.6 mph - N/A   Clear
7:52 PM 27.0 °F 20.5 °F 15.1 °F 61% 30.23 in 10.0 mi WSW 5.8 mph - N/A   Clear
8:52 PM 28.0 °F 21.7 °F 19.9 °F 72% 30.24 in 10.0 mi West 5.8 mph - N/A   Clear
9:52 PM 26.1 °F 20.5 °F 16.0 °F 66% 30.25 in 10.0 mi West 4.6 mph - N/A   Scattered Clouds
10:52 PM 26.1 °F 20.5 °F 18.0 °F 71% 30.24 in 10.0 mi West 4.6 mph - N/A   Clear
11:52 PM 25.0 °F 18.1 °F 17.1 °F 72% 30.23 in 10.0 mi WNW 5.8 mph - N/A   Clear